Previsão horária em Almonte

Hoje, 21 Janeiro, Quinta-feira

Tempo Temperatura Precipitação Vento Pressão Humidade
00:00 +12°C° 0 mm 5 m/s 761 mmHg 87%
01:00 +12°C° 0 mm 5 m/s 762 mmHg 88%
02:00 +12°C° 0 mm 4 m/s 762 mmHg 89%
03:00 +12°C° 0 mm 4 m/s 762 mmHg 90%
04:00 +12°C° 0.1 mm 4 m/s 762 mmHg 89%
05:00 +12°C° 0.1 mm 4 m/s 762 mmHg 89%
06:00 +12°C° 0 mm 4 m/s 762 mmHg 90%
07:00 +13°C° 0 mm 4 m/s 763 mmHg 89%
08:00 +13°C° 0 mm 4 m/s 763 mmHg 89%
09:00 +14°C° 0 mm 4 m/s 763 mmHg 88%
10:00 +15°C° 0.1 mm 5 m/s 764 mmHg 84%
11:00 +16°C° 0.1 mm 6 m/s 764 mmHg 80%
12:00 +17°C° 0.1 mm 7 m/s 764 mmHg 76%
13:00 +17°C° 0.1 mm 8 m/s 763 mmHg 76%
14:00 +17°C° 0.1 mm 8 m/s 763 mmHg 76%
15:00 +17°C° 0.1 mm 9 m/s 762 mmHg 76%
16:00 +16°C° 0.1 mm 8 m/s 762 mmHg 79%
17:00 +15°C° 0.1 mm 8 m/s 762 mmHg 82%
18:00 +15°C° 0.1 mm 7 m/s 762 mmHg 85%
19:00 +15°C° 0 mm 7 m/s 762 mmHg 85%
20:00 +15°C° 0 mm 8 m/s 762 mmHg 85%
21:00 +15°C° 0 mm 8 m/s 762 mmHg 85%
22:00 +15°C° 0.2 mm 9 m/s 762 mmHg 87%
23:00 +14°C° 0.2 mm 10 m/s 762 mmHg 88%

Amanhã, 22 Janeiro, Sexta-feira

Tempo Temperatura Precipitação Vento Pressão Humidade
00:00 +14°C° 0.2 mm 10 m/s 761 mmHg 89%
01:00 +14°C° 0.6 mm 10 m/s 761 mmHg 90%
02:00 +16°C° 0.6 mm 10 m/s 761 mmHg 90%
03:00 +16°C° 0.6 mm 10 m/s 760 mmHg 90%
04:00 +15°C° 0.1 mm 9 m/s 760 mmHg 90%
05:00 +15°C° 0.1 mm 8 m/s 760 mmHg 90%
06:00 +15°C° 0.1 mm 7 m/s 761 mmHg 90%
07:00 +14°C° 0 mm 7 m/s 761 mmHg 87%
08:00 +14°C° 0 mm 7 m/s 762 mmHg 84%
09:00 +13°C° 0 mm 8 m/s 762 mmHg 81%
10:00 +13°C° 0 mm 8 m/s 762 mmHg 75%
11:00 +15°C° 0 mm 8 m/s 763 mmHg 69%
12:00 +15°C° 0 mm 8 m/s 763 mmHg 64%
13:00 +15°C° 0 mm 8 m/s 763 mmHg 63%
14:00 +15°C° 0 mm 8 m/s 763 mmHg 63%
15:00 +15°C° 0 mm 8 m/s 762 mmHg 63%
16:00 +14°C° 0 mm 7 m/s 763 mmHg 66%
17:00 +14°C° 0 mm 6 m/s 763 mmHg 69%
18:00 +13°C° 0 mm 5 m/s 763 mmHg 72%
19:00 +12°C° 0 mm 5 m/s 764 mmHg 74%
20:00 +12°C° 0 mm 5 m/s 764 mmHg 77%
21:00 +10°C° 0 mm 5 m/s 765 mmHg 79%
22:00 +10°C° 0 mm 5 m/s 765 mmHg 81%
23:00 +10°C° 0 mm 4 m/s 765 mmHg 82%

Depois de amanhã, 23 Janeiro, Sábado

Tempo Temperatura Precipitação Vento Pressão Humidade
00:00 +10°C° 0 mm 4 m/s 765 mmHg 84%
01:00 +10°C° 0 mm 4 m/s 765 mmHg 84%
02:00 +10°C° 0 mm 4 m/s 765 mmHg 83%
03:00 +10°C° 0 mm 4 m/s 765 mmHg 83%
04:00 +10°C° 0 mm 4 m/s 765 mmHg 83%
05:00 +11°C° 0 mm 4 m/s 764 mmHg 82%
06:00 +11°C° 0 mm 3 m/s 764 mmHg 81%
07:00 +11°C° 0 mm 3 m/s 764 mmHg 80%
08:00 +12°C° 0 mm 3 m/s 765 mmHg 80%
09:00 +12°C° 0 mm 3 m/s 765 mmHg 80%
10:00 +13°C° 0.1 mm 5 m/s 765 mmHg 76%
11:00 +14°C° 0.1 mm 6 m/s 764 mmHg 72%
12:00 +15°C° 0.1 mm 7 m/s 764 mmHg 68%
13:00 +15°C° 0 mm 7 m/s 764 mmHg 69%
14:00 +15°C° 0 mm 8 m/s 763 mmHg 69%
15:00 +15°C° 0 mm 9 m/s 762 mmHg 70%
16:00 +15°C° 0 mm 8 m/s 762 mmHg 73%
17:00 +15°C° 0 mm 8 m/s 762 mmHg 76%
18:00 +13°C° 0 mm 8 m/s 761 mmHg 79%
19:00 +13°C° 0 mm 9 m/s 761 mmHg 81%
20:00 +15°C° 0 mm 9 m/s 761 mmHg 82%
21:00 +14°C° 0 mm 10 m/s 761 mmHg 84%
22:00 +14°C° 0.1 mm 10 m/s 761 mmHg 85%
23:00 +15°C° 0.1 mm 9 m/s 761 mmHg 86%

24 Janeiro, Domingo

Tempo Temperatura Precipitação Vento Pressão Humidade
00:00 +16°C° 0.1 mm 9 m/s 761 mmHg 87%
01:00 +15°C° 0.1 mm 9 m/s 761 mmHg 86%
02:00 +15°C° 0.1 mm 8 m/s 760 mmHg 86%
03:00 +15°C° 0.1 mm 8 m/s 760 mmHg 86%
04:00 +15°C° 0.1 mm 7 m/s 760 mmHg 87%
05:00 +15°C° 0.1 mm 7 m/s 760 mmHg 88%
06:00 +15°C° 0.1 mm 6 m/s 760 mmHg 90%
07:00 +14°C° 0.1 mm 5 m/s 761 mmHg 87%
08:00 +14°C° 0.1 mm 4 m/s 761 mmHg 84%
09:00 +13°C° 0.1 mm 4 m/s 762 mmHg 81%
10:00 +14°C° 0 mm 3 m/s 762 mmHg 76%
11:00 +16°C° 0 mm 3 m/s 762 mmHg 71%
12:00 +16°C° 0 mm 3 m/s 762 mmHg 66%
13:00 +17°C° 0 mm 3 m/s 761 mmHg 65%
14:00 +17°C° 0 mm 2 m/s 761 mmHg 64%
15:00 +17°C° 0 mm 2 m/s 761 mmHg 64%
16:00 +16°C° 0.1 mm 2 m/s 761 mmHg 69%
17:00 +15°C° 0.1 mm 2 m/s 761 mmHg 75%
18:00 +15°C° 0.1 mm 2 m/s 761 mmHg 80%
19:00 +14°C° 0 mm 2 m/s 761 mmHg 83%
20:00 +14°C° 0 mm 2 m/s 761 mmHg 86%
21:00 +14°C° 0 mm 1 m/s 762 mmHg 88%
22:00 +14°C° 0 mm 1 m/s 762 mmHg 88%
23:00 +14°C° 0 mm 1 m/s 762 mmHg 89%

25 Janeiro, Segunda-feira

Tempo Temperatura Precipitação Vento Pressão Humidade
00:00 +13°C° 0 mm 1 m/s 762 mmHg 89%
01:00 +13°C° 0 mm 1 m/s 762 mmHg 88%
02:00 +13°C° 0 mm 1 m/s 762 mmHg 87%
03:00 +13°C° 0 mm 1 m/s 762 mmHg 87%
04:00 +13°C° 0 mm 1 m/s 762 mmHg 87%
05:00 +12°C° 0 mm 1 m/s 762 mmHg 87%
06:00 +12°C° 0 mm 1 m/s 762 mmHg 87%
07:00 +13°C° 0 mm 1 m/s 762 mmHg 86%
08:00 +13°C° 0 mm 1 m/s 763 mmHg 86%
09:00 +14°C° 0 mm 1 m/s 763 mmHg 85%
10:00 +14°C° 0 mm 2 m/s 763 mmHg 84%
11:00 +15°C° 0 mm 2 m/s 764 mmHg 83%
12:00 +16°C° 0 mm 3 m/s 764 mmHg 83%
13:00 +16°C° 0 mm 3 m/s 763 mmHg 84%
14:00 +17°C° 0 mm 2 m/s 763 mmHg 85%
15:00 +17°C° 0 mm 2 m/s 763 mmHg 86%
16:00 +16°C° 0 mm 2 m/s 763 mmHg 88%
17:00 +16°C° 0 mm 2 m/s 763 mmHg 90%
18:00 +15°C° 0 mm 2 m/s 763 mmHg 92%
19:00 +15°C° 0.1 mm 2 m/s 764 mmHg 92%
20:00 +15°C° 0.1 mm 2 m/s 764 mmHg 93%
21:00 +15°C° 0.1 mm 2 m/s 765 mmHg 93%
22:00 +15°C° 0 mm 2 m/s 765 mmHg 94%
23:00 +15°C° 0 mm 2 m/s 765 mmHg 94%

26 Janeiro, Terça-feira

Tempo Temperatura Precipitação Vento Pressão Humidade
00:00 +15°C° 0 mm 2 m/s 765 mmHg 94%
01:00 +14°C° 0 mm 2 m/s 766 mmHg 94%
02:00 +14°C° 0 mm 2 m/s 766 mmHg 95%
03:00 +13°C° 0 mm 3 m/s 766 mmHg 95%
04:00 +13°C° 0 mm 2 m/s 766 mmHg 95%
05:00 +13°C° 0 mm 2 m/s 766 mmHg 94%
06:00 +13°C° 0 mm 2 m/s 766 mmHg 94%
07:00 +13°C° 0 mm 2 m/s 767 mmHg 92%
08:00 +14°C° 0 mm 2 m/s 767 mmHg 90%
09:00 +14°C° 0 mm 1 m/s 768 mmHg 89%
10:00 +16°C° 0 mm 2 m/s 768 mmHg 82%
11:00 +17°C° 0 mm 2 m/s 768 mmHg 76%
12:00 +18°C° 0 mm 2 m/s 768 mmHg 70%
13:00 +19°C° 0 mm 2 m/s 768 mmHg 69%
14:00 +19°C° 0 mm 2 m/s 768 mmHg 67%
15:00 +19°C° 0 mm 2 m/s 767 mmHg 65%
16:00 +18°C° 0 mm 2 m/s 767 mmHg 70%
17:00 +17°C° 0 mm 2 m/s 767 mmHg 76%
18:00 +16°C° 0 mm 3 m/s 768 mmHg 81%
19:00 +16°C° 0 mm 2 m/s 768 mmHg 83%
20:00 +16°C° 0 mm 2 m/s 768 mmHg 84%
21:00 +16°C° 0 mm 2 m/s 768 mmHg 85%
22:00 +15°C° 0 mm 2 m/s 768 mmHg 87%
23:00 +15°C° 0 mm 2 m/s 768 mmHg 88%
Mostrar mais

Necessitamos do seu Consentimento

A Meteoprog e os seus Fornecedores de Serviços podem armazenar e aceder a dados pessoais como cookies, identificadores do dispositivo ou outras tecnologias semelhantes existentes no seu dispositivo e processar estes dados para personalizar conteúdos e anúncios, assim como funcionalidades nas redes sociais e análise de tráfego.

  • Armazenar e/ou aceder a informações no seu dispositivo

    Os cookies, identificadores do dispositivo ou outras informações podem ser armazenados ou acedidos no seu dispositivo, para os fins acima indicados.

  • Anúncios e conteúdos personalizados, medição de anúncios e conteúdos, dados sobre o público-alvo e desenvolvimento de produtos

    Os anúncios e os conteúdos podem ser personalizados com base num perfil. Podem ser adicionados dados adicionais para uma maior personalização dos anúncios e dos conteúdos. A eficácia dos anúncios e dos conteúdos pode ser medida. Podem ser obtidas informações sobre o público que visualizou os anúncios e os conteúdos. Estes dados podem ser usados para desenvolver ou melhorar sistemas, softwares ou a experiência do utilizador.

Ao clicar em "Eu concordo”, permitirá o uso de cookies, identificadores do dispositivo e web beacons mencionados ou outras tecnologias semelhantes. As configurações do navegador do seu dispositivo podem ser alteradas.

Para certos fins, podem ser invocados interesses legítimos ao invés de consentimento. Pode ler mais informação sobre este assunto na nossa Política de Privacidade e Cookies.